Current weather by "City, St" or "zip code"  
 
Advertise Here

Current Conditions: Ionia County Airport, MI

Partly Cloudy


59.0 F

Last Updated on May 12 2021, 1:59 pm EDT
Humidity: 31%
Wind Speed: E 3.5 mph
Barometer 30.41 in
Dewpoint: 28.0 F
Visibility: 10.00 mi
Precip: --
Heat Index: NA
Wind Chill: NA
Current conditions at:

Ionia County Airport, MI (KY70)

Lat: 42.938 Lon: 85.0605

Local Radar Image active severe weather and emergency alerts image image weather storm and storm spotter reports image weather observation monitoring service image
Local
Radar
Active
Alerts
Storm Reports Obs
Monitoring

Sign-up For Email & Text Message Weather Alert Notification Services


Advertise Here

Observation History for Ionia County Airport, MI


Time Wind
(mph)
Vis
(mi)
Weather Precip (in) Temperature (F) Relative
Humidity
Wind
Chill
(F)
Heat
Index
(F)
Pressure
Air Dwpt altimeter
(in)
sea level
(mb)
Rmks
1:59 pm EDT E 3.5 10.00 Partly Cloudy -- 59.0 28.0 31% NA NA 30.41 M
12:58 pm EDT NW 6.9 10.00 Fair -- 59.0 30.4 33% 58 NA 30.44 M
11:57 am EDT E 4.6 10.00 Fair -- 56.0 28.4 35% 55 NA 30.44 M
10:55 am EDT NW 4.6 10.00 Fair -- 54.0 28.9 38% 53 NA 30.45 M
9:59 am EDT N 5.8 10.00 Fair -- 51.0 28.8 43% 49 NA 30.46 M
8:59 am EDT N 3.5 10.00 Fair -- 45.0 29.5 55% NA NA 30.46 M
7:58 am EDT N 0.0 10.00 Fair -- 40.0 28.0 63% NA NA 30.44 M
6:58 am EDT NW 3.5 10.00 Fair -- 36.0 26.2 69% NA NA 30.42 M
5:56 am EDT NW 4.6 10.00 Fair -- 34.0 25.7 72% 30 NA 30.40 M
4:55 am EDT W 3.5 10.00 Fair -- 35.0 26.1 70% NA NA 30.39 M
3:59 am EDT W 3.5 10.00 Fair -- 37.0 26.4 67% NA NA 30.38 M
2:58 am EDT W 4.6 10.00 Fair -- 35.0 26.6 70% 31 NA 30.38 M
1:57 am EDT NW 3.5 10.00 Fair -- 38.0 26.6 64% NA NA 30.37 M
12:55 am EDT W 4.6 10.00 Fair -- 40.0 26.8 59% 37 NA 30.38 M
11:59 pm EDT NW 3.5 10.00 Fair -- 42.0 25.5 52% NA NA 30.37 M
10:58 pm EDT N 4.6 10.00 Fair -- 43.0 25.5 50% 40 NA 30.36 M
9:56 pm EDT N 0.0 10.00 Fair -- 46.0 24.8 44% NA NA 30.33 M
8:56 pm EDT N 5.8 10.00 Fair -- 47.0 24.8 41% 44 NA 30.31 M
7:59 pm EDT N 11.5 G 16.1 10.00 Fair -- 50.0 26.4 39% 46 NA 30.29 M
6:57 pm EDT N 9.2 10.00 Partly Cloudy -- 52.0 26.2 37% 49 NA 30.27 M
5:55 pm EDT N 15.0 G 19.6 10.00 Overcast -- 55.0 27.9 36% 51 NA 30.26 M
4:56 pm EDT N 12.7 G 18.4 10.00 Mostly Cloudy -- 52.0 27.3 38% 48 NA 30.24 M
3:58 pm EDT N 15.0 10.00 Mostly Cloudy -- 51.0 28.2 41% 46 NA 30.24 M
2:56 pm EDT N 12.7 G 19.6 10.00 Mostly Cloudy -- 51.0 28.4 41% 46 NA 30.26 M

Regional Weather Observation


Grand Rapids, Gerald R. Ford International Airport, MI (KGRR)

A Few Clouds
60.0 F

Big Rapids, Roben-Hood Airport, MI (KRQB)

Fair
57.0 F

Alma, Gratiot Community Airport, MI (KAMN)

Fair
60.0 F

Mount Pleasant, Mount Pleasant Municipal Airport, MI (KMOP)

Fair
62.0 F

Capital Region International Airport, MI (KLAN)

Fair
61.0 F

Owosso, Owosso Community Airport, MI (KRNP)

Fair
61.0 F
Advertise Here

Advertise Here